Find Starlink 30529

NORAD ID: 58047 Int'l Des: 2023-156 Owner: SPXS Country: US Constellation: starlink operational
LEOCIRCULAR

当前视图

正在加载3D地球...

About Starlink 30529

Starlink 30529 (NORAD 58047) is a starlink constellation satellite (v2 mini) launched Oct 9, 2023 by SPXS of US. It operates in LEO, CIRCULAR orbit with a mass of 730.00 kg.

即将过境

Passes for default location (London). Set your location on the main map for personalized predictions.

高度历史

Loading altitude history...

两行轨道根数

1 58047U 23156V 26230.01190197 -.00007753 00000-0 -21877-3 0 9994
2 58047 53.1610 138.0222 0001320 88.2208 271.8946 15.34370541159694
Epoch: Aug 18, 2026 • Age: 24 hours

当前状态

高度 464.3 km
远地点 / 近地点 N/A
速度 7.64 km/s
星下点 32.09°N, 164.81°W
发射日期 Oct 9, 2023
运行时间 2.8 years
类型 internet

技术详情

分类 Payload
质量 730.00 kg
干质量 700.00 kg
总质量 730.00 kg
长度 0.30 m
直径 4.10 m
跨度 29.00 m
形状 Box + pan
制造商 SPXS
平台类型 Starlink V2M
阶段状态 In Orbit
所有者/国家 SPXS/US

Most Searched